[[{"header":{"parameterUnit":"m.s-1","parameterCategory":1,"la1":30.2991,"la2":30.254,"lo1":-89.0895,"lo2":-89.0444,"dy":0.0017,"dx":0.0017,"nx":28,"ny":28,"refTime":"2024-08-29T03:00:00:Z","depth":0,"parameterNumber":2,"parameterNumberName":"U-component_of_WINDS"},"data":[0,0,0,0,0,0,0,0,0,0,0,0,0,0,0,0,0,0,0,0,0,0,0,0,0,0,0,0,0,0,0,0,0,0,0,0,0,0,0,0,0,0,0,0,0,0,0,0,0,0,0,0,0,0,0,0,0,0,-1.6057,-1.6057,0,-1.5989,-1.5988,-1.5988,-1.5948,-1.5948,-1.5948,-1.5948,-1.5876,-1.5874,-1.5873,0,0,0,0,0,0,0,0,0,0,0,0,0,-1.6152,-1.6151,-1.6057,-1.6056,-1.6056,-1.5989,-1.5988,-1.5987,-1.5948,-1.5948,-1.5948,-1.5948,-1.5877,-1.5875,-1.5872,0,0,0,0,0,0,0,0,0,0,0,0,0,-1.61,-1.615,-1.6057,-1.6028,-1.6025,-1.599,-1.5988,-1.5987,-1.5948,-1.5948,-1.5948,-1.5948,-1.5877,-1.5875,-1.5872,-1.586,0,0,-1.5864,-1.5863,0,0,0,0,0,0,0,0,-1.6103,-1.6097,-1.6033,-1.603,-1.6026,-1.5977,-1.5995,-1.5944,-1.5949,-1.5977,-1.5948,-1.5948,-1.591,-1.5904,-1.5892,-1.5857,-1.5853,-1.5864,-1.5862,-1.5861,-1.586,0,0,0,0,0,0,0,-1.6107,-1.6099,-1.603,-1.6032,-1.6028,-1.6018,-1.601,-1.5986,-1.5945,-1.5975,-1.5972,-1.5964,-1.5908,-1.5895,-1.589,-1.5852,-1.5864,-1.5861,-1.586,-1.5859,-1.5804,-1.5804,0,0,0,0,0,0,-1.6115,-1.6103,-1.6032,-1.6028,-1.6065,-1.6017,-1.6008,-1.5993,-1.5946,-1.5938,-1.5965,-1.5963,-1.5899,-1.5893,-1.5887,-1.587,-1.5861,-1.5858,-1.5857,-1.5804,-1.5804,-1.5804,0,0,0,0,0,0,-1.6118,-1.611,-1.6035,-1.6065,-1.6054,-1.6015,-1.5999,-1.5992,-1.5979,-1.5938,-1.5931,-1.5959,-1.5899,-1.5891,-1.5867,-1.5867,-1.5857,-1.5855,-1.5804,-1.5804,-1.5804,-1.5835,0,0,0,0,0,0,-1.612,-1.6111,-1.6106,-1.6065,-1.6053,-1.6017,-1.5999,-1.5991,-1.5974,-1.5971,-1.593,-1.5923,-1.5898,-1.5872,-1.5865,-1.5863,-1.5853,-1.5804,-1.5804,-1.5804,-1.5834,-1.5837,-1.5839,0,0,0,0,0,-1.6124,-1.6116,-1.6106,-1.6097,-1.6046,-1.6017,-1.601,-1.5981,-1.5975,-1.5969,-1.5943,-1.5925,-1.5869,-1.5869,-1.5861,-1.5859,-1.5804,-1.5804,-1.5804,-1.5833,-1.5836,-1.5839,0,0,0,0,0,0,-1.6157,-1.611,-1.6098,-1.6077,-1.6051,-1.601,-1.6002,-1.5986,-1.596,-1.5959,-1.5924,-1.5915,-1.5895,-1.5875,-1.5876,-1.5845,-1.5834,-1.5833,-1.5859,-1.5861,-1.5864,-1.5868,-1.5851,0,0,0,0,0,-1.6162,-1.6143,-1.6103,-1.6088,-1.6076,-1.6042,-1.6028,-1.6008,-1.598,-1.5969,-1.5941,-1.5913,-1.589,-1.5874,-1.585,-1.5832,-1.5822,-1.5826,-1.5829,-1.5831,-1.5829,-1.5818,-1.582,-1.5806,-1.5806,-1.5806,0,0,-1.6172,-1.6144,-1.6133,-1.6094,-1.6072,-1.6052,-1.6033,-1.6012,-1.5997,-1.5965,-1.5941,-1.592,-1.5887,-1.5866,-1.5856,-1.5849,-1.5832,-1.5831,-1.5833,-1.5831,-1.5819,-1.582,-1.5822,-1.5806,-1.5806,-1.5806,0,0,-1.6179,-1.6156,-1.6142,-1.612,-1.6088,-1.6065,-1.6062,-1.6024,-1.6009,-1.5984,-1.596,-1.5942,-1.5901,-1.5879,-1.5863,-1.5864,-1.5846,-1.5857,-1.5868,-1.5858,-1.5859,-1.586,-1.586,-1.5861,-1.5856,-1.5857,-1.5857,0,-1.6195,-1.6165,-1.6136,-1.6118,-1.6101,-1.6073,-1.6058,-1.6038,-1.5999,-1.5988,-1.5981,-1.5931,-1.5907,-1.588,-1.5881,-1.5869,-1.5864,-1.5861,-1.5861,-1.5862,-1.5862,-1.5862,-1.5862,-1.5858,-1.5858,-1.5858,-1.5858,0,-1.6186,-1.6165,-1.6157,-1.6121,-1.6104,-1.6087,-1.6056,-1.6042,-1.6025,-1.6003,-1.5979,-1.595,-1.5919,-1.5912,-1.5894,-1.5883,-1.588,-1.5868,-1.5856,-1.5866,-1.5865,-1.5864,-1.586,-1.586,-1.5859,-1.5859,0,0,-1.621,-1.616,-1.6157,-1.6141,-1.6104,-1.6087,-1.6069,-1.6041,-1.6029,-1.6003,-1.5987,-1.5955,-1.5944,-1.5925,-1.5905,-1.5897,-1.5899,-1.5885,-1.5884,-1.5889,-1.5885,-1.5894,-1.5894,-1.5888,-1.5888,-1.5888,-1.5888,0,-1.6212,-1.6179,-1.6154,-1.613,-1.6111,-1.6085,-1.607,-1.6045,-1.6025,-1.6005,-1.5982,-1.596,-1.5947,-1.5936,-1.5926,-1.5901,-1.5898,-1.5901,-1.5872,-1.5871,-1.588,-1.5894,-1.5902,-1.5904,-1.5887,-1.5887,-1.5887,0,-1.6208,-1.6185,-1.616,-1.6125,-1.6116,-1.6103,-1.6075,-1.6057,-1.6029,-1.6014,-1.5995,-1.5974,-1.5955,-1.5946,-1.5918,-1.5921,-1.5908,-1.5894,-1.5893,-1.5888,-1.5879,-1.5888,-1.5903,-1.5903,-1.5886,-1.5886,-1.5886,0,-1.6228,-1.619,-1.6171,-1.6157,-1.6117,-1.6108,-1.609,-1.6062,-1.6047,-1.6022,-1.6012,-1.5986,-1.5971,-1.5951,-1.5924,-1.592,-1.5899,-1.5888,-1.5886,-1.5887,-1.5882,-1.5882,-1.5894,-1.5875,-1.5875,-1.5875,-1.5875,0,-1.6232,-1.6218,-1.6179,-1.6167,-1.615,-1.6122,-1.6106,-1.6086,-1.6061,-1.6045,-1.6021,-1.6005,-1.5971,-1.5952,-1.5931,-1.5911,-1.5905,-1.5893,-1.5887,-1.5894,-1.5896,-1.5884,-1.5883,-1.5875,-1.5875,-1.5875,-1.5875,0,-1.6251,-1.6224,-1.6201,-1.6165,-1.6156,-1.6145,-1.6114,-1.6101,-1.608,-1.6059,-1.6053,-1.602,-1.5996,-1.5968,-1.5935,-1.5921,-1.5902,-1.5894,-1.5912,-1.5909,-1.5908,-1.5908,-1.5912,-1.5911,-1.5894,-1.5894,-1.5895,0,-1.6254,-1.6243,-1.6206,-1.6193,-1.6177,-1.6157,-1.6142,-1.6114,-1.6099,-1.6066,-1.6057,-1.6032,-1.601,-1.5973,-1.5946,-1.5921,-1.5912,-1.5915,-1.5907,-1.5915,-1.5911,-1.5912,-1.591,-1.5916,-1.5917,-1.5917,-1.5917,0,-1.6263,-1.6251,-1.623,-1.6205,-1.6188,-1.6166,-1.6144,-1.6135,-1.6102,-1.6087,-1.6063,-1.6046,-1.6013,-1.5988,-1.5959,-1.5941,-1.5923,-1.592,-1.5918,-1.5925,-1.5935,-1.5929,-1.5916,-1.5919,-1.5919,-1.5919,-1.5919,-1.5919,-1.6274,-1.6263,-1.6235,-1.6213,-1.6194,-1.6173,-1.616,-1.6138,-1.6118,-1.6089,-1.6074,-1.605,-1.6023,-1.5983,-1.5965,-1.5946,-1.594,-1.5937,-1.5936,-1.5936,-1.5938,-1.5939,-1.5941,-1.5941,-1.5941,-1.5941,-1.5941,0,-1.6281,-1.6263,-1.6243,-1.6213,-1.6195,-1.6182,-1.6157,-1.6143,-1.6122,-1.6099,-1.6078,-1.6051,-1.6027,-1.5999,-1.5973,-1.5963,-1.5954,-1.5957,-1.5957,-1.5953,-1.5945,-1.5949,-1.5965,-1.5965,-1.5965,-1.5965,-1.5965,-1.5965,-1.6283,-1.6263,-1.6248,-1.6219,-1.62,-1.6177,-1.6164,-1.6146,-1.6127,-1.6097,-1.6078,-1.606,-1.6034,-1.6007,-1.5984,-1.5977,-1.5968,-1.5973,-1.5963,-1.5956,-1.5954,-1.5952,-1.5955,-1.5972,-1.5972,-1.5972,-1.5972,-1.5972]},{"header":{"parameterUnit":"m.s-1","parameterCategory":1,"la1":30.2991,"la2":30.254,"lo1":-89.0895,"lo2":-89.0444,"dy":0.0017,"dx":0.0017,"nx":28,"ny":28,"refTime":"2024-08-29T03:00:00:Z","depth":0,"parameterNumber":3,"parameterNumberName":"V-component_of_WINDS"},"data":[0,0,0,0,0,0,0,0,0,0,0,0,0,0,0,0,0,0,0,0,0,0,0,0,0,0,0,0,0,0,0,0,0,0,0,0,0,0,0,0,0,0,0,0,0,0,0,0,0,0,0,0,0,0,0,0,0,0,3.3927,3.3926,0,3.3863,3.3862,3.3861,3.383,3.383,3.383,3.383,3.3761,3.3759,3.3757,0,0,0,0,0,0,0,0,0,0,0,0,0,3.4018,3.4016,3.3927,3.3926,3.3925,3.3863,3.3862,3.3861,3.383,3.383,3.383,3.383,3.3761,3.3759,3.3757,0,0,0,0,0,0,0,0,0,0,0,0,0,3.3968,3.4016,3.3927,3.3902,3.3899,3.3863,3.3862,3.3861,3.383,3.383,3.383,3.383,3.3762,3.3759,3.3756,3.3739,0,0,3.3748,3.3747,0,0,0,0,0,0,0,0,3.3971,3.3965,3.3907,3.3904,3.3901,3.3854,3.3869,3.382,3.383,3.3856,3.383,3.383,3.3792,3.3786,3.3774,3.3735,3.3732,3.3748,3.3746,3.3745,3.3744,0,0,0,0,0,0,0,3.3975,3.3968,3.3901,3.3906,3.3902,3.3893,3.3886,3.3859,3.3824,3.3854,3.3851,3.3845,3.379,3.3777,3.3772,3.3731,3.3748,3.3745,3.3744,3.3742,3.3674,3.3674,0,0,0,0,0,0,3.3983,3.3971,3.3903,3.3899,3.3937,3.3891,3.3883,3.3869,3.3825,3.3818,3.3845,3.3843,3.3782,3.3776,3.377,3.3745,3.3745,3.3742,3.3741,3.3674,3.3674,3.3674,0,0,0,0,0,0,3.3985,3.3977,3.3906,3.3934,3.3925,3.389,3.3874,3.3868,3.3855,3.3818,3.3811,3.3838,3.3781,3.3774,3.3747,3.3743,3.3741,3.3738,3.3674,3.3674,3.3674,3.3697,0,0,0,0,0,0,3.3987,3.3978,3.3972,3.3934,3.3923,3.3885,3.3874,3.3867,3.3851,3.3848,3.381,3.3803,3.3781,3.3751,3.3744,3.3739,3.3736,3.3674,3.3674,3.3674,3.3697,3.3698,3.3699,0,0,0,0,0,3.3991,3.398,3.3972,3.3964,3.3915,3.3885,3.3878,3.3854,3.3851,3.3843,3.3819,3.3804,3.3744,3.3749,3.374,3.3734,3.3675,3.3674,3.3674,3.3696,3.3698,3.3699,0,0,0,0,0,0,3.4017,3.3975,3.3965,3.3942,3.3918,3.388,3.387,3.3857,3.3831,3.383,3.38,3.3791,3.3767,3.3748,3.3753,3.3714,3.3708,3.3706,3.3728,3.3729,3.373,3.3735,3.3734,0,0,0,0,0,3.402,3.4,3.3964,3.3948,3.3936,3.3905,3.3891,3.3875,3.3848,3.3837,3.3811,3.3784,3.3758,3.3743,3.3717,3.3694,3.3684,3.3685,3.3687,3.3688,3.3686,3.3671,3.3671,3.3673,3.3673,3.3673,0,0,3.4026,3.4001,3.399,3.3952,3.3931,3.391,3.3897,3.3875,3.3859,3.3833,3.3806,3.3786,3.3754,3.3729,3.3716,3.3712,3.3684,3.3687,3.3688,3.3686,3.3671,3.3671,3.3671,3.3672,3.3672,3.3673,0,0,3.4026,3.4006,3.399,3.3969,3.3938,3.3917,3.3914,3.3878,3.3864,3.3837,3.3817,3.3796,3.3754,3.3732,3.3715,3.3707,3.3692,3.3699,3.3705,3.3691,3.3691,3.3691,3.3687,3.3686,3.3698,3.3698,3.3698,0,3.4038,3.4007,3.3982,3.3962,3.3946,3.3922,3.3905,3.3886,3.3847,3.3836,3.3832,3.3778,3.3755,3.3724,3.3722,3.3709,3.3703,3.3703,3.3693,3.3693,3.3692,3.3688,3.3687,3.3699,3.3699,3.3699,3.3699,0,3.4022,3.4001,3.3991,3.3956,3.3938,3.3919,3.3891,3.3876,3.3861,3.384,3.3813,3.3784,3.3752,3.3744,3.3728,3.371,3.3708,3.3699,3.3692,3.3693,3.3689,3.3688,3.3701,3.37,3.37,3.37,0,0,3.4036,3.3989,3.3985,3.3969,3.3933,3.3915,3.3895,3.3865,3.3852,3.3827,3.3808,3.3773,3.3764,3.3745,3.3727,3.3715,3.3709,3.3707,3.3705,3.3708,3.3686,3.3693,3.3692,3.3699,3.3699,3.3699,3.3689,0,3.4031,3.3996,3.3973,3.3945,3.3925,3.3902,3.3884,3.3859,3.384,3.3818,3.3796,3.3771,3.3762,3.375,3.3737,3.3713,3.3704,3.3713,3.368,3.368,3.3689,3.369,3.3697,3.3689,3.3687,3.3687,3.3687,0,3.4021,3.3997,3.3968,3.3934,3.3924,3.3909,3.388,3.386,3.3831,3.3817,3.3796,3.3778,3.3754,3.3749,3.3715,3.3722,3.3707,3.3693,3.3692,3.3687,3.3683,3.3685,3.3686,3.3685,3.3684,3.3684,3.3684,0,3.4034,3.3994,3.3972,3.3958,3.3918,3.3908,3.389,3.3861,3.3845,3.3819,3.3807,3.3779,3.3763,3.374,3.3714,3.3713,3.3682,3.3676,3.3669,3.367,3.3663,3.3664,3.3662,3.3655,3.3655,3.3655,3.3655,0,3.4031,3.4013,3.3977,3.3963,3.3943,3.3916,3.3897,3.3877,3.3851,3.3832,3.381,3.3792,3.3759,3.3737,3.3716,3.3691,3.3684,3.3671,3.3666,3.3673,3.3674,3.3662,3.3662,3.3655,3.3655,3.3655,3.3655,0,3.4042,3.4017,3.3991,3.3955,3.3945,3.3932,3.3901,3.3885,3.3865,3.3841,3.3833,3.38,3.3773,3.3745,3.3707,3.3693,3.3668,3.3661,3.3679,3.3675,3.3671,3.3671,3.366,3.3657,3.3653,3.3653,3.3653,0,3.4041,3.4027,3.3991,3.3977,3.396,3.3938,3.3921,3.3894,3.3878,3.3843,3.3832,3.3803,3.3779,3.3736,3.3708,3.3679,3.367,3.3668,3.3666,3.3673,3.3669,3.367,3.3669,3.3669,3.3669,3.367,3.367,0,3.4042,3.4031,3.4008,3.3981,3.3962,3.394,3.3916,3.3905,3.3874,3.3856,3.3828,3.3809,3.3771,3.3743,3.371,3.3691,3.3674,3.3671,3.3668,3.3675,3.3685,3.3679,3.3681,3.3671,3.3671,3.3671,3.3671,3.3671,3.4047,3.4034,3.4006,3.3981,3.3961,3.3939,3.3923,3.3901,3.3878,3.3846,3.3831,3.3803,3.3773,3.3728,3.3709,3.3686,3.3681,3.3677,3.3676,3.3675,3.3676,3.369,3.368,3.368,3.368,3.3679,3.3679,0,3.4046,3.4027,3.4005,3.3973,3.3954,3.3942,3.3915,3.3899,3.3875,3.3849,3.3826,3.3794,3.3766,3.3736,3.3705,3.3693,3.3684,3.3685,3.3686,3.3681,3.3682,3.3688,3.3693,3.3693,3.3693,3.3693,3.3693,3.3693,3.4044,3.4021,3.4006,3.3972,3.3952,3.3926,3.3911,3.3891,3.387,3.3836,3.3813,3.3794,3.3766,3.3734,3.3707,3.3699,3.3688,3.3692,3.3681,3.3682,3.3681,3.368,3.3685,3.369,3.369,3.3682,3.3682,3.3682]}]]